Terug naar catalogus

STARLINK-34922

ActiefCommunicatieSSO
NORAD 65273·PAYLOAD·🇺🇸 United States

Gelanceerd Aug 22, 2025 vanaf Vandenberg Space Force Base

Loading…

Volgende Passages (komende 24 uur)

TLE

VersSource: CelesTrak SupGP

Epoch: Sep 15, 2026, 03:33 UTC

1 65273C 25184A   26258.14840278  .00012594  00000+0  39104-3 0  2588
2 65273  97.2838 306.2096 0001181  96.0023 327.1580 15.33424690    13

Volg STARLINK-34922 in realtime met AllMySat

Download on the App Store